Location: Zabreh
(49.8800°N, 16.8800°E)
Time: 03:06:20
(UTC+01:00)

ISS - Visible Passes

Search period start: 17 November 2018 00:00
Search period end: 27 November 2018 00:00
Orbit: 402 x 408 km, 51.6° (Epoch: 17 November)

Date Brightness Start Highest point End Pass type
(mag) Time Alt. Az. Time Alt. Az. Time Alt. Az.
24 Nov -1.0 18:33:38 10° SSW 18:34:06 13° SSW 18:34:06 13° SSW visible
25 Nov -1.8 17:42:16 10° S 17:44:16 17° SE 17:44:16 17° SE visible
26 Nov -1.3 16:52:00 10° SE 16:52:33 10° SE 16:53:06 10° SE visible
26 Nov -2.0 18:25:15 10° SW 18:27:02 28° SSW 18:27:02 28° SSW visible
